| time (UTC) | temp C | wind direction | speed KPH | gust KPH | rain 1hr cm | rain 24hr cm | rain mn cm | humidity % | barometer mb |
| 20260505085803 | 11 | 245 | 0.0 | 3.2 | 0.00 | 0.28 | 0.25 | 83 | 1022.2 |
| 20260505085304 | 11 | 255 | 0.0 | 1.6 | 0.00 | 0.28 | 0.25 | 83 | 1022.1 |
| 20260505084803 | 11 | 255 | 0.0 | 1.6 | 0.00 | 0.28 | 0.25 | 83 | 1022.1 |
| 20260505084303 | 11 | 252 | 0.0 | 1.6 | 0.00 | 0.28 | 0.25 | 82 | 1022.0 |
| 20260505083803 | 11 | 249 | 1.6 | 6.4 | 0.00 | 0.28 | 0.25 | 82 | 1021.9 |
| 20260505083303 | 11 | 234 | 3.2 | 6.4 | 0.00 | 0.28 | 0.25 | 82 | 1021.9 |
| 20260505082803 | 11 | 273 | 3.2 | 4.8 | 0.00 | 0.28 | 0.25 | 82 | 1021.9 |
| 20260505082304 | 11 | 252 | 1.6 | 6.4 | 0.00 | 0.28 | 0.25 | 82 | 1021.8 |
| 20260505081803 | 11 | 241 | 1.6 | 4.8 | 0.00 | 0.28 | 0.25 | 82 | 1021.8 |
| 20260505081303 | 11 | 257 | 3.2 | 6.4 | 0.00 | 0.28 | 0.25 | 82 | 1021.7 |
| 20260505080803 | 11 | 252 | 1.6 | 6.4 | 0.00 | 0.28 | 0.25 | 82 | 1021.7 |
| 20260505080303 | 11 | 242 | 1.6 | 4.8 | 0.00 | 0.28 | 0.25 | 82 | 1021.6 |
| 20260505075803 | 11 | 250 | 1.6 | 3.2 | 0.00 | 0.28 | 0.25 | 82 | 1021.6 |
| 20260505075304 | 11 | 228 | 1.6 | 6.4 | 0.00 | 0.28 | 0.25 | 81 | 1021.5 |
| 20260505074803 | 11 | 240 | 1.6 | 3.2 | 0.00 | 0.28 | 0.25 | 81 | 1021.4 |
| 20260505074304 | 11 | 234 | 3.2 | 9.7 | 0.00 | 0.28 | 0.25 | 81 | 1021.4 |
| 20260505073804 | 11 | 256 | 1.6 | 12.9 | 0.00 | 0.28 | 0.25 | 81 | 1021.3 |
| 20260505073304 | 11 | 248 | 0.0 | 6.4 | 0.00 | 0.28 | 0.25 | 81 | 1021.4 |
| 20260505072804 | 11 | 257 | 1.6 | 4.8 | 0.00 | 0.28 | 0.25 | 81 | 1021.2 |
| 20260505072305 | 11 | 232 | 3.2 | 4.8 | 0.00 | 0.28 | 0.25 | 80 | 1021.2 |
| 20260505071804 | 11 | 273 | 3.2 | 12.9 | 0.00 | 0.28 | 0.25 | 79 | 1021.1 |
| 20260505071304 | 11 | 268 | 3.2 | 9.7 | 0.00 | 0.28 | 0.25 | 80 | 1021.1 |
| 20260505070804 | 11 | 257 | 3.2 | 8.0 | 0.00 | 0.28 | 0.25 | 79 | 1021.0 |
| 20260505070304 | 11 | 248 | 3.2 | 11.3 | 0.00 | 0.28 | 0.25 | 79 | 1021.0 |
| 20260505065804 | 11 | 232 | 3.2 | 4.8 | 0.00 | 0.28 | 0.25 | 79 | 1020.9 |
| 20260505065304 | 11 | 254 | 1.6 | 6.4 | 0.00 | 0.28 | 0.25 | 79 | 1020.8 |
| 20260505064804 | 11 | 277 | 1.6 | 6.4 | 0.00 | 0.28 | 0.25 | 79 | 1020.8 |
| 20260505064304 | 11 | 253 | 3.2 | 4.8 | 0.00 | 0.28 | 0.25 | 79 | 1020.7 |
| 20260505063804 | 11 | 252 | 3.2 | 12.9 | 0.00 | 0.28 | 0.25 | 78 | 1020.7 |
| 20260505063304 | 11 | 230 | 3.2 | 11.3 | 0.00 | 0.28 | 0.25 | 78 | 1020.6 |
| 20260505062804 | 11 | 247 | 3.2 | 9.7 | 0.00 | 0.28 | 0.25 | 79 | 1020.6 |
| 20260505062304 | 11 | 259 | 4.8 | 9.7 | 0.00 | 0.28 | 0.25 | 79 | 1020.6 |
| 20260505061804 | 11 | 265 | 4.8 | 12.9 | 0.00 | 0.28 | 0.25 | 78 | 1020.7 |
| 20260505061304 | 11 | 271 | 3.2 | 9.7 | 0.00 | 0.28 | 0.25 | 77 | 1020.6 |
| 20260505060804 | 11 | 260 | 4.8 | 14.5 | 0.00 | 0.28 | 0.25 | 77 | 1020.5 |
| 20260505060304 | 11 | 264 | 4.8 | 14.5 | 0.00 | 0.28 | 0.25 | 76 | 1020.5 |
| 20260505055804 | 11 | 227 | 4.8 | 14.5 | 0.00 | 0.28 | 0.25 | 76 | 1020.5 |
| 20260505055304 | 11 | 270 | 3.2 | 12.9 | 0.00 | 0.28 | 0.25 | 76 | 1020.5 |
| 20260505054804 | 11 | 253 | 3.2 | 6.4 | 0.00 | 0.28 | 0.25 | 77 | 1020.4 |
| 20260505054304 | 11 | 289 | 4.8 | 9.7 | 0.00 | 0.28 | 0.25 | 76 | 1020.4 |
| 20260505053804 | 11 | 257 | 4.8 | 11.3 | 0.00 | 0.28 | 0.25 | 78 | 1020.4 |
| 20260505053304 | 11 | 317 | 4.8 | 11.3 | 0.00 | 0.28 | 0.25 | 78 | 1020.3 |
| 20260505052804 | 11 | 272 | 4.8 | 11.3 | 0.00 | 0.28 | 0.25 | 78 | 1020.3 |
| 20260505052304 | 11 | 234 | 4.8 | 11.3 | 0.00 | 0.28 | 0.25 | 79 | 1020.2 |
| 20260505051804 | 11 | 275 | 4.8 | 14.5 | 0.00 | 0.28 | 0.25 | 79 | 1020.2 |
| 20260505051304 | 11 | 263 | 3.2 | 12.9 | 0.00 | 0.28 | 0.25 | 80 | 1020.1 |
| 20260505050804 | 11 | 255 | 3.2 | 6.4 | 0.00 | 0.28 | 0.25 | 80 | 1020.2 |
| 20260505050304 | 11 | 236 | 3.2 | 8.0 | 0.00 | 0.28 | 0.25 | 80 | 1020.1 |
| 20260505041304 | 11 | 244 | 3.2 | 4.8 | 0.00 | 0.28 | 0.25 | 79 | 1019.7 |
| 20260505040804 | 11 | 230 | 3.2 | 12.9 | 0.00 | 0.28 | 0.25 | 80 | 1019.6 |
| 20260505040304 | 11 | 248 | 3.2 | 9.7 | 0.00 | 0.28 | 0.25 | 78 | 1019.6 |
| 20260505035804 | 11 | 231 | 3.2 | 9.7 | 0.00 | 0.28 | 0.25 | 79 | 1019.7 |
| 20260505035304 | 11 | 205 | 3.2 | 9.7 | 0.00 | 0.28 | 0.25 | 79 | 1019.7 |
| 20260505034804 | 11 | 248 | 3.2 | 6.4 | 0.00 | 0.28 | 0.25 | 80 | 1019.6 |
| 20260505034304 | 11 | 199 | 3.2 | 11.3 | 0.00 | 0.28 | 0.25 | 80 | 1019.6 |
| 20260505033804 | 11 | 259 | 1.6 | 6.4 | 0.00 | 0.28 | 0.25 | 80 | 1019.7 |
| 20260505033304 | 11 | 254 | 1.6 | 4.8 | 0.00 | 0.28 | 0.25 | 81 | 1019.7 |
| 20260505032804 | 11 | 303 | 3.2 | 6.4 | 0.00 | 0.28 | 0.25 | 80 | 1019.7 |
| 20260505032304 | 11 | 302 | 3.2 | 8.0 | 0.00 | 0.28 | 0.25 | 80 | 1019.8 |
| 20260505031804 | 11 | 271 | 3.2 | 9.7 | 0.00 | 0.28 | 0.25 | 80 | 1019.7 |
| 20260505031304 | 11 | 252 | 3.2 | 9.7 | 0.00 | 0.28 | 0.25 | 80 | 1019.7 |
| 20260505030804 | 11 | 218 | 6.4 | 9.7 | 0.00 | 0.28 | 0.25 | 80 | 1019.7 |
| 20260505030304 | 11 | 262 | 4.8 | 17.7 | 0.00 | 0.28 | 0.25 | 79 | 1019.7 |
| 20260505025804 | 11 | 252 | 3.2 | 11.3 | 0.00 | 0.28 | 0.25 | 80 | 1019.7 |
| 20260505025305 | 11 | 270 | 4.8 | 11.3 | 0.00 | 0.28 | 0.25 | 79 | 1019.7 |
| 20260505024804 | 11 | 232 | 4.8 | 12.9 | 0.00 | 0.28 | 0.25 | 81 | 1019.7 |
| 20260505024304 | 11 | 168 | 3.2 | 11.3 | 0.00 | 0.28 | 0.25 | 81 | 1019.7 |
| 20260505023804 | 11 | 172 | 3.2 | 6.4 | 0.00 | 0.28 | 0.25 | 81 | 1019.8 |
| 20260505023304 | 11 | 293 | 3.2 | 11.3 | 0.00 | 0.28 | 0.25 | 80 | 1019.8 |
| 20260505022804 | 11 | 175 | 3.2 | 12.9 | 0.00 | 0.28 | 0.25 | 81 | 1019.9 |
| 20260505022304 | 11 | 222 | 3.2 | 8.0 | 0.00 | 0.28 | 0.25 | 82 | 1019.9 |
| 20260505021804 | 11 | 272 | 4.8 | 9.7 | 0.00 | 0.28 | 0.25 | 79 | 1019.9 |
| 20260505021304 | 11 | 300 | 4.8 | 14.5 | 0.00 | 0.28 | 0.25 | 80 | 1020.0 |
| 20260505020804 | 11 | 234 | 4.8 | 11.3 | 0.00 | 0.28 | 0.25 | 80 | 1020.0 |
| 20260505020304 | 11 | 263 | 4.8 | 11.3 | 0.00 | 0.28 | 0.25 | 80 | 1020.1 |
| 20260505015804 | 11 | 175 | 3.2 | 11.3 | 0.00 | 0.28 | 0.25 | 80 | 1020.1 |
| 20260505015304 | 11 | 213 | 3.2 | 11.3 | 0.00 | 0.28 | 0.25 | 80 | 1020.1 |
| 20260505014804 | 11 | 274 | 3.2 | 6.4 | 0.00 | 0.28 | 0.25 | 80 | 1020.1 |
| 20260505014304 | 11 | 334 | 3.2 | 14.5 | 0.00 | 0.28 | 0.25 | 79 | 1020.1 |
| 20260505013804 | 11 | 239 | 1.6 | 6.4 | 0.00 | 0.28 | 0.25 | 81 | 1020.0 |
| 20260505013304 | 10 | 294 | 3.2 | 9.7 | 0.00 | 0.28 | 0.25 | 81 | 1020.0 |
| 20260505012804 | 10 | 177 | 4.8 | 12.9 | 0.00 | 0.28 | 0.25 | 82 | 1020.1 |
| 20260505012304 | 10 | 187 | 4.8 | 16.1 | 0.00 | 0.28 | 0.25 | 81 | 1020.2 |
| 20260505011804 | 10 | 232 | 4.8 | 12.9 | 0.00 | 0.28 | 0.25 | 81 | 1020.3 |
| 20260505011304 | 10 | 216 | 3.2 | 16.1 | 0.00 | 0.28 | 0.25 | 81 | 1020.0 |
| 20260505010804 | 10 | 165 | 1.6 | 6.4 | 0.00 | 0.28 | 0.25 | 81 | 1020.2 |
| 20260505010304 | 10 | 221 | 3.2 | 6.4 | 0.00 | 0.28 | 0.25 | 80 | 1020.1 |
| 20260505005804 | 10 | 252 | 4.8 | 14.5 | 0.00 | 0.28 | 0.25 | 80 | 1020.1 |
| 20260505005304 | 10 | 261 | 4.8 | 14.5 | 0.00 | 0.28 | 0.25 | 82 | 1020.1 |
| 20260505004804 | 10 | 263 | 4.8 | 14.5 | 0.00 | 0.28 | 0.25 | 82 | 1020.1 |
| 20260505004304 | 10 | 219 | 4.8 | 12.9 | 0.00 | 0.28 | 0.25 | 83 | 1020.1 |
| 20260505003804 | 9 | 212 | 4.8 | 12.9 | 0.00 | 0.28 | 0.25 | 83 | 1020.1 |
| 20260505003304 | 9 | 254 | 4.8 | 12.9 | 0.00 | 0.28 | 0.25 | 84 | 1020.1 |
| 20260505002804 | 9 | 259 | 3.2 | 8.0 | 0.00 | 0.28 | 0.25 | 86 | 1020.1 |
| 20260505002304 | 8 | 225 | 4.8 | 14.5 | 0.00 | 0.28 | 0.25 | 87 | 1020.0 |
| 20260505001804 | 8 | 196 | 3.2 | 17.7 | 0.00 | 0.28 | 0.25 | 86 | 1020.0 |
| 20260505001304 | 8 | 276 | 3.2 | 9.7 | 0.00 | 0.28 | 0.25 | 88 | 1020.0 |
| 20260505000804 | 8 | 233 | 4.8 | 19.3 | 0.00 | 0.28 | 0.25 | 88 | 1019.9 |
| 20260505000304 | 8 | 242 | 3.2 | 16.1 | 0.00 | 0.28 | 0.25 | 89 | 1019.8 |
| 20260504235804 | 8 | 259 | 3.2 | 11.3 | 0.00 | 0.28 | 0.25 | 90 | 1019.8 |
| 20260504235305 | 8 | 264 | 3.2 | 16.1 | 0.00 | 0.28 | 0.25 | 90 | 1019.9 |
| 20260504234804 | 8 | 194 | 1.6 | 9.7 | 0.00 | 0.28 | 0.25 | 90 | 1019.9 |
| 20260504234304 | 8 | 259 | 3.2 | 17.7 | 0.00 | 0.28 | 0.25 | 90 | 1019.8 |
| 20260504233804 | 8 | 211 | 3.2 | 12.9 | 0.00 | 0.28 | 0.25 | 91 | 1019.7 |
| 20260504233304 | 8 | 300 | 3.2 | 16.1 | 0.00 | 0.28 | 0.25 | 92 | 1019.7 |
| 20260504232804 | 8 | 214 | 3.2 | 12.9 | 0.00 | 0.28 | 0.25 | 92 | 1019.6 |
| 20260504232304 | 8 | 182 | 3.2 | 12.9 | 0.00 | 0.28 | 0.25 | 93 | 1019.7 |
| 20260504231804 | 8 | 270 | 3.2 | 16.1 | 0.00 | 0.28 | 0.25 | 93 | 1019.7 |
| 20260504231304 | 8 | 253 | 1.6 | 12.9 | 0.00 | 0.28 | 0.25 | 94 | 1019.7 |
| 20260504230804 | 8 | 251 | 3.2 | 6.4 | 0.00 | 0.28 | 0.25 | 94 | 1019.7 |
| 20260504230304 | 8 | 262 | 4.8 | 11.3 | 0.00 | 0.28 | 0.25 | 94 | 1019.7 |
| 20260504225804 | 8 | 169 | 4.8 | 11.3 | 0.00 | 0.28 | 0.25 | 93 | 1019.6 |
| 20260504225304 | 8 | 255 | 6.4 | 20.9 | 0.00 | 0.28 | 0.25 | 94 | 1019.5 |
| 20260504224804 | 8 | 281 | 4.8 | 16.1 | 0.00 | 0.28 | 0.25 | 94 | 1019.4 |
| 20260504224304 | 8 | 228 | 4.8 | 14.5 | 0.00 | 0.28 | 0.25 | 94 | 1019.5 |
| 20260504223804 | 8 | 269 | 4.8 | 12.9 | 0.00 | 0.28 | 0.25 | 94 | 1019.4 |
| 20260504223304 | 8 | 279 | 3.2 | 11.3 | 0.00 | 0.28 | 0.25 | 95 | 1019.4 |
| 20260504222804 | 8 | 205 | 4.8 | 17.7 | 0.00 | 0.28 | 0.25 | 95 | 1019.2 |
| 20260504222305 | 8 | 260 | 3.2 | 12.9 | 0.00 | 0.28 | 0.25 | 95 | 1019.1 |
| 20260504221804 | 8 | 250 | 3.2 | 8.0 | 0.00 | 0.28 | 0.25 | 94 | 1019.0 |
| 20260504221304 | 8 | 209 | 3.2 | 12.9 | 0.00 | 0.28 | 0.25 | 95 | 1018.9 |
| 20260504220804 | 8 | 263 | 4.8 | 11.3 | 0.00 | 0.28 | 0.25 | 95 | 1018.9 |
| 20260504220304 | 8 | 244 | 6.4 | 12.9 | 0.00 | 0.28 | 0.25 | 94 | 1018.8 |
| 20260504215805 | 8 | 202 | 6.4 | 17.7 | 0.00 | 0.28 | 0.25 | 94 | 1018.7 |
| 20260504215305 | 8 | 218 | 4.8 | 14.5 | 0.00 | 0.28 | 0.25 | 95 | 1018.6 |
| 20260504214805 | 8 | 250 | 3.2 | 12.9 | 0.00 | 0.28 | 0.25 | 95 | 1018.4 |
| 20260504214305 | 8 | 194 | 3.2 | 9.7 | 0.00 | 0.28 | 0.25 | 95 | 1018.3 |
| 20260504213805 | 8 | 252 | 4.8 | 14.5 | 0.00 | 0.28 | 0.25 | 95 | 1018.1 |
| 20260504213305 | 8 | 254 | 6.4 | 14.5 | 0.00 | 0.28 | 0.25 | 95 | 1018.1 |
| 20260504212805 | 8 | 259 | 4.8 | 14.5 | 0.00 | 0.28 | 0.25 | 94 | 1017.9 |
| 20260504212305 | 8 | 277 | 4.8 | 12.9 | 0.03 | 0.28 | 0.25 | 95 | 1017.9 |
| 20260504211805 | 8 | 255 | 3.2 | 14.5 | 0.03 | 0.28 | 0.25 | 95 | 1017.9 |
| 20260504211305 | 8 | 257 | 3.2 | 11.3 | 0.05 | 0.28 | 0.25 | 95 | 1017.8 |
| 20260504210805 | 8 | 265 | 4.8 | 11.3 | 0.05 | 0.28 | 0.25 | 95 | 1017.7 |
| 20260504210305 | 8 | 159 | 3.2 | 11.3 | 0.05 | 0.28 | 0.25 | 95 | 1017.6 |
| 20260504205805 | 8 | 250 | 1.6 | 9.7 | 0.05 | 0.28 | 0.25 | 95 | 1017.6 |
| 20260504205305 | 8 | 285 | 3.2 | 4.8 | 0.08 | 0.28 | 0.25 | 95 | 1017.5 |
| 20260504204805 | 8 | 246 | 3.2 | 9.7 | 0.10 | 0.28 | 0.25 | 95 | 1017.5 |
| 20260504204305 | 8 | 277 | 3.2 | 11.3 | 0.10 | 0.28 | 0.25 | 95 | 1017.5 |
| 20260504203805 | 8 | 198 | 4.8 | 9.7 | 0.10 | 0.28 | 0.25 | 94 | 1017.3 |
| 20260504203305 | 8 | 248 | 3.2 | 11.3 | 0.10 | 0.28 | 0.25 | 95 | 1017.3 |
| 20260504202805 | 8 | 204 | 3.2 | 9.7 | 0.10 | 0.28 | 0.25 | 95 | 1017.2 |
| 20260504202305 | 8 | 286 | 3.2 | 11.3 | 0.08 | 0.25 | 0.23 | 95 | 1017.0 |
| 20260504201805 | 8 | 260 | 3.2 | 8.0 | 0.08 | 0.25 | 0.23 | 95 | 1017.0 |
| 20260504201305 | 8 | 251 | 4.8 | 9.7 | 0.08 | 0.23 | 0.20 | 95 | 1016.9 |
| 20260504200805 | 8 | 256 | 3.2 | 11.3 | 0.08 | 0.23 | 0.20 | 95 | 1016.9 |
| 20260504200305 | 8 | 252 | 3.2 | 4.8 | 0.10 | 0.23 | 0.20 | 95 | 1016.8 |
| 20260504195805 | 8 | 226 | 4.8 | 14.5 | 0.10 | 0.23 | 0.20 | 95 | 1016.7 |
| 20260504195305 | 8 | 274 | 4.8 | 14.5 | 0.08 | 0.20 | 0.18 | 95 | 1016.5 |
| 20260504194805 | 8 | 238 | 4.8 | 16.1 | 0.05 | 0.18 | 0.15 | 95 | 1016.5 |
| 20260504194305 | 8 | 287 | 6.4 | 20.9 | 0.05 | 0.18 | 0.15 | 95 | 1016.5 |
| 20260504193805 | 8 | 259 | 4.8 | 14.5 | 0.08 | 0.18 | 0.15 | 95 | 1016.4 |
| 20260504193305 | 8 | 257 | 6.4 | 12.9 | 0.10 | 0.18 | 0.15 | 95 | 1016.5 |
| 20260504192805 | 8 | 201 | 6.4 | 14.5 | 0.10 | 0.18 | 0.15 | 94 | 1016.5 |
| 20260504192305 | 9 | 252 | 4.8 | 17.7 | 0.10 | 0.18 | 0.15 | 94 | 1016.4 |
| 20260504191805 | 9 | 259 | 4.8 | 8.0 | 0.13 | 0.18 | 0.15 | 94 | 1016.4 |
| 20260504191305 | 9 | 209 | 4.8 | 11.3 | 0.10 | 0.15 | 0.13 | 94 | 1016.2 |
| 20260504190805 | 9 | 275 | 4.8 | 12.9 | 0.10 | 0.15 | 0.13 | 94 | 1016.3 |
| 20260504190305 | 9 | 252 | 6.4 | 12.9 | 0.08 | 0.13 | 0.10 | 94 | 1016.2 |
| 20260504185805 | 9 | 240 | 6.4 | 17.7 | 0.08 | 0.13 | 0.10 | 94 | 1016.1 |
| 20260504185305 | 9 | 169 | 4.8 | 12.9 | 0.08 | 0.13 | 0.10 | 94 | 1016.2 |
| 20260504184805 | 9 | 5 | 4.8 | 12.9 | 0.08 | 0.13 | 0.10 | 94 | 1016.1 |
| 20260504184305 | 9 | 254 | 6.4 | 17.7 | 0.08 | 0.13 | 0.10 | 94 | 1016.0 |
| 20260504183805 | 9 | 300 | 4.8 | 16.1 | 0.05 | 0.10 | 0.08 | 94 | 1015.9 |
| 20260504183305 | 9 | 247 | 4.8 | 12.9 | 0.03 | 0.08 | 0.05 | 94 | 1015.9 |
| 20260504182805 | 9 | 256 | 3.2 | 11.3 | 0.03 | 0.08 | 0.05 | 94 | 1015.8 |
| 20260504182305 | 9 | 282 | 4.8 | 12.9 | 0.03 | 0.08 | 0.05 | 94 | 1015.8 |
| 20260504181805 | 9 | 268 | 6.4 | 12.9 | 0.00 | 0.05 | 0.03 | 93 | 1015.9 |
| 20260504181305 | 9 | 267 | 4.8 | 12.9 | 0.00 | 0.05 | 0.03 | 93 | 1015.7 |
| 20260504180805 | 9 | 242 | 6.4 | 12.9 | 0.00 | 0.05 | 0.03 | 93 | 1015.7 |
| 20260504180305 | 9 | 252 | 6.4 | 16.1 | 0.00 | 0.05 | 0.03 | 93 | 1015.7 |
| 20260504175805 | 9 | 302 | 6.4 | 24.1 | 0.00 | 0.05 | 0.03 | 93 | 1015.7 |
| 20260504175305 | 9 | 309 | 4.8 | 16.1 | 0.00 | 0.05 | 0.03 | 93 | 1015.6 |
| 20260504174805 | 9 | 258 | 4.8 | 12.9 | 0.00 | 0.05 | 0.03 | 93 | 1015.6 |
| 20260504174305 | 9 | 286 | 4.8 | 17.7 | 0.00 | 0.05 | 0.03 | 92 | 1015.6 |
| 20260504173805 | 9 | 251 | 4.8 | 9.7 | 0.00 | 0.05 | 0.03 | 92 | 1015.6 |
| 20260504173305 | 9 | 304 | 4.8 | 14.5 | 0.00 | 0.05 | 0.03 | 92 | 1015.6 |
| 20260504172805 | 9 | 242 | 3.2 | 14.5 | 0.00 | 0.05 | 0.03 | 92 | 1015.6 |
| 20260504172305 | 9 | 288 | 4.8 | 9.7 | 0.00 | 0.05 | 0.03 | 92 | 1015.5 |
| 20260504171805 | 9 | 271 | 4.8 | 22.5 | 0.00 | 0.05 | 0.03 | 92 | 1015.5 |
| 20260504171305 | 9 | 288 | 6.4 | 9.7 | 0.00 | 0.05 | 0.03 | 92 | 1015.6 |
| 20260504170805 | 9 | 294 | 8.0 | 22.5 | 0.00 | 0.05 | 0.03 | 92 | 1015.6 |
| 20260504170305 | 9 | 263 | 4.8 | 19.3 | 0.00 | 0.05 | 0.03 | 92 | 1015.5 |
| 20260504160305 | 9 | 321 | 4.8 | 16.1 | 0.00 | 0.05 | 0.03 | 92 | 1015.2 |
| 20260504150805 | 9 | 332 | 4.8 | 14.5 | 0.03 | 0.05 | 0.03 | 92 | 1015.0 |
| 20260504150305 | 9 | 218 | 4.8 | 12.9 | 0.03 | 0.05 | 0.03 | 92 | 1015.1 |
| 20260504141305 | 9 | 333 | 4.8 | 16.1 | 0.00 | 0.03 | 0.00 | 92 | 1014.7 |
| 20260504140805 | 9 | 243 | 4.8 | 11.3 | 0.00 | 0.03 | 0.00 | 92 | 1014.7 |
| 20260504140305 | 9 | 329 | 4.8 | 9.7 | 0.00 | 0.03 | 0.00 | 92 | 1014.7 |
| 20260504130805 | 9 | 292 | 4.8 | 12.9 | 0.00 | 0.03 | 0.03 | 93 | 1014.5 |
| 20260504130305 | 9 | 317 | 4.8 | 11.3 | 0.00 | 0.03 | 0.03 | 93 | 1014.5 |
| 20260504120306 | 10 | 0 | 6.4 | 16.1 | 0.00 | 0.03 | 0.03 | 91 | 1014.2 |
| 20260504110306 | 10 | 249 | 6.4 | 14.5 | 0.00 | 0.03 | 0.03 | 90 | 1013.2 |
| 20260504100306 | 10 | 292 | 6.4 | 22.5 | 0.03 | 0.03 | 0.03 | 90 | 1012.3 |